[[{"header":{"parameterUnit":"m.s-1","parameterCategory":1,"la1":30.2991,"la2":30.254,"lo1":-89.0895,"lo2":-89.0444,"dy":0.0017,"dx":0.0017,"nx":28,"ny":28,"refTime":"2024-02-05T03:00:00:Z","depth":0,"parameterNumber":2,"parameterNumberName":"U-component_of_WINDS"},"data":[0,0,0,0,0,0,0,0,0,0,0,0,0,0,0,0,0,0,0,0,0,0,0,0,0,0,0,0,0,0,0,0,0,0,0,0,0,0,0,0,0,0,0,0,0,0,0,0,0,0,0,0,0,0,0,0,0,0,1.2721,1.2721,0,1.2711,1.2711,1.2711,1.2722,1.2723,1.2723,1.2724,1.2712,1.2711,1.2711,0,0,0,0,0,0,0,0,0,0,0,0,0,1.2751,1.275,1.2721,1.2721,1.2721,1.2711,1.2711,1.2711,1.2722,1.2723,1.2723,1.2724,1.2712,1.2712,1.2711,0,0,0,0,0,0,0,0,0,0,0,0,0,1.2739,1.275,1.2721,1.2726,1.2726,1.2711,1.2711,1.271,1.2722,1.2723,1.2723,1.2724,1.2713,1.2712,1.2711,1.2691,0,0,1.2707,1.2707,0,0,0,0,0,0,0,0,1.274,1.2738,1.2725,1.2725,1.2725,1.2719,1.2717,1.2704,1.2722,1.2723,1.2724,1.2724,1.2714,1.2713,1.2709,1.269,1.269,1.2707,1.2707,1.2706,1.2706,0,0,0,0,0,0,0,1.274,1.2738,1.2717,1.2725,1.2725,1.2728,1.2727,1.2714,1.2715,1.2723,1.2724,1.2723,1.2714,1.271,1.2709,1.2689,1.2707,1.2706,1.2706,1.2705,1.2653,1.2652,0,0,0,0,0,0,1.2741,1.2739,1.2717,1.2717,1.2734,1.2727,1.2726,1.272,1.2715,1.2715,1.2722,1.2723,1.2712,1.271,1.2709,1.2684,1.2706,1.2705,1.2704,1.2653,1.2653,1.2652,0,0,0,0,0,0,1.2741,1.2739,1.2718,1.2728,1.2726,1.2726,1.2719,1.2719,1.2716,1.2714,1.2714,1.2718,1.2712,1.271,1.2695,1.2684,1.2705,1.2704,1.2654,1.2653,1.2652,1.2635,0,0,0,0,0,0,1.2742,1.2739,1.2731,1.2728,1.2725,1.2704,1.2718,1.2719,1.2714,1.2715,1.2711,1.271,1.2712,1.2696,1.2694,1.2682,1.2703,1.2655,1.2654,1.2653,1.2636,1.2633,1.263,0,0,0,0,0,1.2743,1.2727,1.2731,1.2728,1.2715,1.2703,1.2702,1.2705,1.2713,1.2705,1.2704,1.2711,1.2686,1.2695,1.2692,1.268,1.2656,1.2654,1.2653,1.2637,1.2634,1.263,0,0,0,0,0,0,1.2728,1.2726,1.2731,1.2713,1.2708,1.2705,1.2696,1.2701,1.2694,1.2695,1.2699,1.2698,1.2681,1.268,1.269,1.266,1.2672,1.267,1.2662,1.2658,1.2655,1.2655,1.2702,0,0,0,0,0,1.2723,1.2714,1.2712,1.2697,1.2694,1.2695,1.269,1.2693,1.2688,1.2686,1.2685,1.268,1.2671,1.2665,1.2656,1.2637,1.2635,1.2627,1.2624,1.2622,1.2619,1.2608,1.2604,1.2646,1.2646,1.2646,0,0,1.2712,1.271,1.2703,1.2694,1.269,1.268,1.2694,1.2682,1.2675,1.2685,1.267,1.2668,1.2663,1.2645,1.2638,1.2643,1.2608,1.262,1.2618,1.2616,1.2606,1.2602,1.2598,1.2645,1.2645,1.2646,0,0,1.2685,1.2683,1.2669,1.2666,1.2661,1.2662,1.2659,1.2656,1.2655,1.2641,1.2648,1.2639,1.2624,1.262,1.2616,1.2589,1.2594,1.2586,1.257,1.2559,1.2555,1.2552,1.2541,1.2537,1.2584,1.2584,1.2584,0,1.2672,1.2656,1.2662,1.265,1.2645,1.2654,1.264,1.2637,1.2629,1.2626,1.2633,1.2614,1.2611,1.2592,1.2585,1.2582,1.2578,1.2586,1.2556,1.2553,1.255,1.2539,1.2535,1.2583,1.2583,1.2583,1.2583,0,1.2639,1.2629,1.2618,1.2611,1.2605,1.2592,1.2595,1.2589,1.2593,1.2593,1.2578,1.2575,1.2566,1.2563,1.2566,1.2544,1.2547,1.2555,1.2567,1.2545,1.2535,1.2531,1.2581,1.2582,1.2582,1.2582,0,0,1.2601,1.2598,1.2593,1.259,1.2586,1.2578,1.2566,1.2557,1.2551,1.2546,1.2535,1.2523,1.253,1.2525,1.2529,1.2519,1.2496,1.2528,1.2528,1.252,1.247,1.2462,1.2457,1.2501,1.25,1.2499,1.247,0,1.2573,1.2551,1.2556,1.2534,1.2524,1.2534,1.2523,1.2519,1.2519,1.2511,1.2512,1.2502,1.2513,1.251,1.2501,1.2501,1.2486,1.2503,1.2489,1.2488,1.2487,1.2452,1.2444,1.2416,1.2466,1.2465,1.2465,0,1.2537,1.2531,1.2508,1.2505,1.2501,1.2491,1.2484,1.2476,1.2472,1.2473,1.2468,1.2474,1.2461,1.2475,1.2457,1.2469,1.2464,1.2463,1.2462,1.2459,1.2473,1.2446,1.2407,1.2402,1.2459,1.2459,1.246,0,1.2509,1.2495,1.2479,1.2477,1.2474,1.2466,1.2465,1.2462,1.2456,1.245,1.2446,1.2439,1.2434,1.2429,1.2432,1.2442,1.2413,1.2427,1.2412,1.2412,1.2403,1.2403,1.2361,1.2404,1.2404,1.2404,1.2404,0,1.2476,1.2461,1.2467,1.2457,1.244,1.2446,1.243,1.243,1.2427,1.2417,1.2426,1.2417,1.2423,1.2414,1.2416,1.24,1.2399,1.2398,1.2399,1.2396,1.2396,1.2391,1.2392,1.2403,1.2403,1.2404,1.2404,0,1.244,1.2444,1.2427,1.2426,1.2426,1.2413,1.2412,1.2403,1.2405,1.2392,1.239,1.2392,1.2382,1.2385,1.2375,1.2376,1.2355,1.236,1.2356,1.2356,1.234,1.234,1.2291,1.2284,1.2334,1.2333,1.2333,0,1.2417,1.2406,1.2404,1.2398,1.2396,1.2386,1.2381,1.2387,1.2381,1.2376,1.2367,1.2358,1.2351,1.2334,1.2334,1.2326,1.2329,1.2312,1.2327,1.2325,1.2326,1.2325,1.2323,1.2308,1.2307,1.2307,1.2307,0,1.2376,1.2378,1.237,1.2363,1.2356,1.235,1.2346,1.234,1.2346,1.2339,1.2329,1.2323,1.2313,1.2303,1.2295,1.2294,1.23,1.2302,1.2298,1.2293,1.2291,1.229,1.2345,1.2303,1.2303,1.2303,1.2303,1.2304,1.2344,1.2334,1.2331,1.2322,1.2319,1.2315,1.2306,1.2307,1.2298,1.2289,1.2294,1.2282,1.2279,1.227,1.2267,1.2258,1.2264,1.2258,1.2256,1.2254,1.2251,1.2295,1.2257,1.2257,1.2257,1.2257,1.2257,0,1.2301,1.23,1.2292,1.2285,1.2277,1.2286,1.2281,1.2274,1.2263,1.226,1.2253,1.2241,1.2232,1.2232,1.2224,1.2216,1.2219,1.2213,1.2212,1.2211,1.2247,1.225,1.2211,1.2211,1.2211,1.2211,1.2211,1.2211,1.2278,1.2261,1.2263,1.2245,1.2244,1.2232,1.2229,1.2224,1.2222,1.2208,1.22,1.2201,1.2199,1.2191,1.2183,1.2183,1.2178,1.2171,1.2172,1.2205,1.2209,1.2213,1.2217,1.2171,1.2171,1.2138,1.2137,1.2137]},{"header":{"parameterUnit":"m.s-1","parameterCategory":1,"la1":30.2991,"la2":30.254,"lo1":-89.0895,"lo2":-89.0444,"dy":0.0017,"dx":0.0017,"nx":28,"ny":28,"refTime":"2024-02-05T03:00:00:Z","depth":0,"parameterNumber":3,"parameterNumberName":"V-component_of_WINDS"},"data":[0,0,0,0,0,0,0,0,0,0,0,0,0,0,0,0,0,0,0,0,0,0,0,0,0,0,0,0,0,0,0,0,0,0,0,0,0,0,0,0,0,0,0,0,0,0,0,0,0,0,0,0,0,0,0,0,0,0,-5.304,-5.3041,0,-5.3214,-5.3216,-5.3218,-5.3217,-5.3215,-5.3212,-5.321,-5.3389,-5.3395,-5.3402,0,0,0,0,0,0,0,0,0,0,0,0,0,-5.2706,-5.2712,-5.3039,-5.3042,-5.3044,-5.3214,-5.3216,-5.3219,-5.3217,-5.3215,-5.3212,-5.3209,-5.3387,-5.3395,-5.3403,0,0,0,0,0,0,0,0,0,0,0,0,0,-5.2863,-5.2714,-5.3039,-5.3064,-5.3068,-5.3213,-5.3216,-5.3219,-5.3218,-5.3215,-5.3211,-5.3208,-5.3384,-5.3394,-5.3404,-5.3537,0,0,-5.3436,-5.344,0,0,0,0,0,0,0,0,-5.2854,-5.2875,-5.3058,-5.3062,-5.3067,-5.319,-5.3164,-5.3326,-5.3219,-5.3161,-5.321,-5.3206,-5.3325,-5.334,-5.3381,-5.3545,-5.3553,-5.3437,-5.3443,-5.3447,-5.345,0,0,0,0,0,0,0,-5.2843,-5.2868,-5.3108,-5.3061,-5.3066,-5.3066,-5.3085,-5.3195,-5.326,-5.3166,-5.3166,-5.3187,-5.3327,-5.3371,-5.3385,-5.3555,-5.3436,-5.3445,-5.3452,-5.3456,-5.3839,-5.3843,0,0,0,0,0,0,-5.2827,-5.2859,-5.3103,-5.3114,-5.295,-5.3075,-5.3096,-5.3154,-5.3259,-5.3272,-5.3189,-5.3186,-5.3355,-5.3373,-5.3391,-5.3555,-5.3447,-5.3457,-5.3463,-5.3835,-5.384,-5.3844,0,0,0,0,0,0,-5.282,-5.2849,-5.3096,-5.2986,-5.3018,-5.3085,-5.315,-5.3159,-5.3203,-5.3277,-5.3289,-5.3222,-5.3353,-5.3377,-5.3501,-5.3561,-5.3461,-5.3471,-5.383,-5.3836,-5.3842,-5.3882,0,0,0,0,0,0,-5.281,-5.2846,-5.2897,-5.2988,-5.3024,-5.3203,-5.3154,-5.3165,-5.3221,-5.3218,-5.3311,-5.3323,-5.3352,-5.3486,-5.3511,-5.3573,-5.3479,-5.3825,-5.3833,-5.384,-5.3875,-5.3888,-5.3899,0,0,0,0,0,-5.2799,-5.2901,-5.29,-5.2929,-5.3088,-5.3206,-5.3227,-5.3258,-5.3225,-5.3277,-5.3325,-5.332,-5.355,-5.3498,-5.3527,-5.3593,-5.3822,-5.3831,-5.3839,-5.387,-5.3886,-5.3899,0,0,0,0,0,0,-5.2815,-5.2913,-5.2913,-5.3047,-5.3119,-5.3206,-5.3272,-5.3274,-5.3356,-5.335,-5.3385,-5.3406,-5.3531,-5.3574,-5.3515,-5.3728,-5.3682,-5.3697,-5.3695,-5.3711,-5.3722,-5.371,-5.3488,0,0,0,0,0,-5.2835,-5.2922,-5.3003,-5.3114,-5.3149,-5.3205,-5.3257,-5.3275,-5.335,-5.338,-5.3437,-5.351,-5.36,-5.3657,-5.3743,-5.3881,-5.3902,-5.3941,-5.3953,-5.3963,-5.3976,-5.4054,-5.4072,-5.3874,-5.3873,-5.3873,0,0,-5.2876,-5.294,-5.2992,-5.3119,-5.3176,-5.3266,-5.323,-5.3326,-5.3394,-5.3395,-5.3516,-5.3561,-5.3645,-5.3777,-5.3838,-5.3817,-5.4035,-5.3974,-5.3981,-5.3989,-5.4065,-5.4084,-5.41,-5.388,-5.3878,-5.3878,0,0,-5.2996,-5.3053,-5.3153,-5.3211,-5.3299,-5.3335,-5.3359,-5.3446,-5.3476,-5.3599,-5.3602,-5.3683,-5.3835,-5.3895,-5.3945,-5.4091,-5.4089,-5.4118,-5.4181,-5.4256,-5.4272,-5.4286,-5.4339,-5.4358,-5.413,-5.413,-5.413,0,-5.3036,-5.3172,-5.3204,-5.3301,-5.3357,-5.3363,-5.3465,-5.352,-5.3631,-5.3669,-5.3644,-5.3837,-5.3893,-5.4041,-5.4076,-5.4117,-5.4146,-5.4108,-5.4267,-5.4282,-5.4295,-5.4346,-5.4366,-5.4133,-5.4133,-5.4133,-5.4132,0,-5.3217,-5.3312,-5.3381,-5.3489,-5.3553,-5.3652,-5.3699,-5.376,-5.3773,-5.3812,-5.3938,-5.4006,-5.4107,-5.4143,-5.4156,-5.4293,-5.4278,-5.4259,-5.4214,-5.4317,-5.4365,-5.4385,-5.4138,-5.4137,-5.4136,-5.4135,0,0,-5.3353,-5.3478,-5.3504,-5.3553,-5.3651,-5.3724,-5.3824,-5.3923,-5.3975,-5.4051,-5.4137,-5.4266,-5.425,-5.4308,-5.4328,-5.4394,-5.4507,-5.4369,-5.4371,-5.4393,-5.4663,-5.4677,-5.4699,-5.4506,-5.451,-5.4513,-5.4657,0,-5.3486,-5.3663,-5.3695,-5.385,-5.3938,-5.3946,-5.4033,-5.4102,-5.4142,-5.4223,-5.4266,-5.4358,-5.433,-5.4365,-5.4431,-5.4479,-5.4562,-5.4469,-5.4587,-5.459,-5.4566,-5.4724,-5.4739,-5.4871,-5.4676,-5.4679,-5.4681,0,-5.3663,-5.3745,-5.3909,-5.3996,-5.4034,-5.4112,-5.4206,-5.4283,-5.4363,-5.4387,-5.4452,-5.4465,-5.457,-5.4519,-5.4664,-5.46,-5.465,-5.4682,-5.4688,-5.47,-5.4643,-5.4743,-5.4914,-5.4934,-5.4711,-5.4709,-5.4707,0,-5.3748,-5.3899,-5.4017,-5.4059,-5.4163,-5.4218,-5.4264,-5.434,-5.4398,-5.448,-5.4518,-5.4611,-5.4662,-5.4734,-5.4773,-5.4732,-5.4916,-5.4868,-5.494,-5.4939,-5.4978,-5.4976,-5.5161,-5.5009,-5.5009,-5.5008,-5.5008,0,-5.3893,-5.3993,-5.4057,-5.4129,-5.4242,-5.4279,-5.439,-5.4435,-5.4503,-5.4585,-5.4596,-5.4673,-5.4719,-5.4802,-5.4833,-5.4949,-5.4972,-5.4995,-5.5002,-5.4995,-5.4992,-5.5029,-5.5021,-5.5013,-5.5012,-5.5011,-5.501,0,-5.4006,-5.4053,-5.4182,-5.427,-5.4295,-5.4375,-5.4451,-5.4522,-5.4562,-5.4666,-5.4692,-5.4754,-5.4854,-5.4899,-5.5021,-5.5042,-5.5175,-5.5175,-5.5148,-5.5151,-5.5221,-5.5214,-5.5437,-5.5469,-5.5294,-5.5296,-5.5297,0,-5.4096,-5.4173,-5.427,-5.4327,-5.4374,-5.4464,-5.4524,-5.4563,-5.4624,-5.4721,-5.4781,-5.4881,-5.4963,-5.5121,-5.5178,-5.5272,-5.5275,-5.5347,-5.5289,-5.528,-5.5278,-5.5273,-5.5281,-5.5357,-5.5359,-5.536,-5.5361,0,-5.4251,-5.427,-5.4355,-5.445,-5.452,-5.4596,-5.4671,-5.4716,-5.4767,-5.4835,-5.4937,-5.5001,-5.5127,-5.5226,-5.5324,-5.5372,-5.5376,-5.5379,-5.5401,-5.5395,-5.5377,-5.5389,-5.5178,-5.5374,-5.5373,-5.5372,-5.5371,-5.5371,-5.4356,-5.4426,-5.4506,-5.4601,-5.4661,-5.4731,-5.4803,-5.4852,-5.4937,-5.5043,-5.5061,-5.517,-5.5249,-5.5381,-5.5432,-5.5518,-5.5501,-5.5532,-5.554,-5.5548,-5.5553,-5.5362,-5.5536,-5.5536,-5.5535,-5.5535,-5.5535,0,-5.4513,-5.4565,-5.4652,-5.4756,-5.4831,-5.4829,-5.4911,-5.4974,-5.507,-5.5143,-5.5224,-5.5342,-5.5439,-5.5503,-5.5601,-5.5658,-5.5663,-5.5683,-5.5679,-5.5691,-5.5562,-5.5534,-5.5677,-5.5677,-5.5677,-5.5677,-5.5677,-5.5677,-5.4603,-5.4722,-5.4751,-5.49,-5.4952,-5.5059,-5.5107,-5.5171,-5.523,-5.5361,-5.5442,-5.5483,-5.5554,-5.5657,-5.5746,-5.5763,-5.5799,-5.582,-5.5836,-5.5714,-5.5699,-5.5685,-5.5659,-5.5827,-5.5827,-5.5958,-5.5959,-5.596]}]]